Regional Weather Roundup
Issued by NWS

Home | Current Version | Previous Version | Graphics & Text | Print | Product List | Glossary On
Versions: 1 2 3 4 5 6 7 8 9 10 11 12 13 14 15 16 17 18 19 20 21 22 23 24 25 26 27 28 29 30 31 32 33 34 35 36 37 38 39 40 41 42 43 44 45 46 47 48 49 50
000
ASUS43 KDMX 220106
RWRIA

WEATHER ROUNDUP FOR IOWA
NATIONAL WEATHER SERVICE DES MOINES IA
700 PM CST SAT JAN 21 2017

NOTE: "FAIR" INDICATES FEW OR NO CLOUDS BELOW 12,000 FEET WITH NO
SIGNIFICANT WEATHER AND/OR OBSTRUCTIONS TO VISIBILITY.

* - THESE STATIONS ARE NOT NWS STATIONS...THUS NOT UNDER NWS
QUALITY CONTROL.  THEY ALSO DO NOT REPORT WEATHER SUCH
AS PRECIPITATION OR FOG.

IAZ001>003-012>014-020>022-031>034-043>046-220200-
   NORTHWEST IOWA

CITY           SKY/WX    TMP DP  RH WIND       PRES   REMARKS
CARROLL *      PTCLDY    34  34 100 CALM      29.51R
DENISON *      CLEAR     36  36 100 CALM      29.49R
LE MARS *      CLEAR     32  30  93 NW5       29.53R WCI  27
ORANGE CITY *  CLOUDY    32  30  93 W8        29.51R WCI  25
SHELDON *      CLOUDY    32  32 100 W12       29.49R WCI  23
SIOUX CITY     CLEAR     32  30  92 N9        29.51R WCI  24
SPENCER          N/A    N/A N/A N/A MISG      29.50R
STORM LAKE *   CLEAR     32  32 100 NW8       29.50R WCI  25
$$

IAZ055>058-069>071-079>083-090>094-220200-
   SOUTHWEST IOWA

CITY           SKY/WX    TMP DP  RH WIND       PRES   REMARKS
ATLANTIC *     FOG       37  36  93 CALM      29.52R VSB 1/4
AUDUBON *      FOG       34  30  86 CALM      29.52R VSB 3/4
CLARINDA *     CLEAR     34  34 100 SW5       29.54R WCI  30
COUNCIL BLFS * CLEAR     45  39  81 SW5       29.51R
CRESTON *      CLEAR     36  36 100 S5        29.54R WCI  32
HARLAN  *      CLEAR     36  36 100 CALM      29.54R FOG
LAMONI         CLEAR     43  39  86 S5        29.53R
RED OAK *      CLEAR     37  37 100 CALM      29.53R
SHENANDOAH *   CLEAR     37  36  93 CALM      29.53R
$$

IAZ047>049-059>061-072>074-084-220200-
   CENTRAL IOWA

CITY           SKY/WX    TMP DP  RH WIND       PRES   REMARKS
AMES           CLEAR     34  34 100 S3        29.53R
ANKENY *       CLEAR     39  37  93 S6        29.55R WCI  35
BOONE *        CLOUDY    39  39 100 CALM      29.51R
CHARITON *     CLEAR     37  37 100 S7        29.54R FOG     WCI  32
DES MOINES     PTCLDY    41  38  89 S3        29.54R
GRINNELL*      CLOUDY    40  38  92 SW7       29.54R
KNOXVILLE *    CLEAR     41  39  93 SW3       29.53R
MARSHALLTOWN   CLOUDY    39  38  96 SW6       29.52R WCI  35
NEWTON *       PTCLDY    37  37 100 SW6       29.54R WCI  33
PELLA *        CLEAR     40  38  95 CALM      29.55S FOG
PERRY *          N/A     35  34  97 S7        29.52R FOG     WCI  29
$$

IAZ004>006-015-016-023>025-035-036-220200-
   NORTH CENTRAL IOWA

CITY           SKY/WX    TMP DP  RH WIND       PRES   REMARKS
ALGONA *       CLOUDY    36  36 100 W8        29.49R WCI  29
CLARION *      CLOUDY    36  36 100 CALM      29.51R FOG
ESTHERVILLE    CLOUDY    31  31 100 W9        29.48R WCI  23
FORT DODGE *   CLOUDY    34  30  86 CALM      29.51R
MASON CITY     CLOUDY    36  36 100 SW9       29.50R WCI  29
FOREST CITY *  CLOUDY    36  36 100 SW5       29.50R FOG     WCI  32
WEBSTER CITY * CLEAR     34 N/A N/A CALM      29.49R HAZE
IOWA FALLS *   MOCLDY    36  36  99 W7        29.52R FOG     WCI  31
$$

IAZ007>011-017>019-026>030-037>042-050>054-066-220200-
   NORTHEAST IOWA

CITY           SKY/WX    TMP DP  RH WIND       PRES   REMARKS
CEDAR RAPIDS   CLOUDY    40  39  97 SW7       29.54R
CHARLES CITY * FOG       37  37 100 SW3       29.51R VSB 1/2
CLINTON *      CLOUDY    41  41 100 SW8       29.57R FOG
DECORAH *      FOG       37  37 100 SW6       29.50R VSB 1/4 WCI  33
DUBUQUE        CLOUDY    41  40  96 SW9       29.53R FOG
MONTICELLO *   CLOUDY    41  41 100 S5        29.53R FOG
WATERLOO       CLOUDY    41  38  89 W9        29.52R
$$

IAZ064-065-067-068-078-220200-
   EAST CENTRAL IOWA

CITY           SKY/WX    TMP DP  RH WIND       PRES   REMARKS
DAVENPORT      CLOUDY    43  41  93 W7        29.56R
IOWA CITY      CLOUDY    44  40  85 SW6       29.57R
MUSCATINE *    CLOUDY    45  41  87 W5        29.58R
QUAD CITIES    CLOUDY    43  40  89 CALM      29.56R
$$

IAZ062-063-075>077-085>089-095>099-220200-
   SOUTHEAST IOWA

CITY           SKY/WX    TMP DP  RH WIND       PRES   REMARKS
BURLINGTON     CLEAR     43  41  93 W5        29.56R
FORT MADISON * CLEAR     41  39  93 W5        29.58R FOG
KEOKUK *       CLEAR     45 N/A N/A NW6       29.56R
OSKALOOSA *      N/A     37  35  92 SW6       29.56R WCI  32
CENTERVILLE *  FOG       37  37 100 CALM      29.56R VSB 3/4
OTTUMWA        PTCLDY    38  35  89 W5        29.54S WCI  34
WASHINGTON *   CLOUDY    43  41  93 SW6       29.57R
$$

ABBREVIATIONS USED IN REMARKS
   TC - TEMPERATURES IN CELSIUS
  WCI - WIND CHILL INDEX
   HX - HEAT INDEX
  VSB - VISIBILITY
$$





USA.gov is the U.S. government's official web portal to all federal, state and local government web resources and services.